CW7204 Weather Reports


time (UTC)temp
C
wind
direction
speed
KPH
gust
KPH
rain 1hr
cm
rain 24hr
cm
rain mn
cm
humidity
%
barometer
mb
20260507092410 14 90 12.9 17.7 0.00 0.00 0.00 55 1016.2
20260507091415 13 90 6.4 20.9 0.00 0.00 0.00 57 1016.1
20260507090415 13 90 11.3 17.7 0.00 0.00 0.00 57 1016.1
20260507085415 13 45 3.2 17.7 0.00 0.00 0.00 61 1015.9
20260507084414 13 67 0.0 11.3 0.00 0.00 0.00 61 1015.9
20260507083414 12 67 4.8 16.1 0.00 0.00 0.00 64 1015.9
20260507081413 12 112 6.4 22.5 0.00 0.00 0.00 64 1015.8
20260507080413 12 90 6.4 14.5 0.00 0.00 0.00 69 1015.8
20260507075413 12 90 6.4 14.5 0.00 0.00 0.00 68 1015.6
20260507074412 11 90 12.9 19.3 0.00 0.00 0.00 67 1015.5
20260507073412 11 67 3.2 17.7 0.00 0.00 0.00 71 1015.5
20260507072411 11 90 9.7 14.5 0.00 0.00 0.00 72 1015.6
20260507071411 11 90 9.7 14.5 0.00 0.00 0.00 73 1015.4
20260507070411 11 45 1.6 17.7 0.00 0.00 0.00 75 1015.4
20260507064415 10 90 9.7 16.1 0.00 0.00 0.00 77 1015.3
20260507063415 10 90 9.7 17.7 0.00 0.00 0.00 79 1015.3
20260507062414 9 90 11.3 20.9 0.00 0.00 0.00 82 1015.1
20260507060414 8 90 4.8 11.3 0.00 0.00 0.00 85 1014.9
20260507055414 8 90 9.7 14.5 0.00 0.00 0.00 86 1014.8
20260507054413 8 67 3.2 9.7 0.00 0.00 0.00 88 1014.8
20260507053413 7 45 1.6 9.7 0.00 0.00 0.00 90 1014.8
20260507052412 6 90 1.6 11.3 0.00 0.00 0.00 92 1014.7
20260507051412 6 45 1.6 3.2 0.00 0.00 0.00 93 1014.4
20260507050411 5 0 0.0 3.2 0.00 0.00 0.00 93 1014.4
20260507045412 5 0 0.0 0.0 0.00 0.00 0.00 94 1014.3
20260507043414 5 0 0.0 0.0 0.00 0.00 0.00 94 1014.3
20260507042410 5 0 0.0 0.0 0.00 0.00 0.00 94 1014.2
20260507040415 5 0 0.0 0.0 0.00 0.00 0.00 94 1013.9
20260507035414 5 0 0.0 0.0 0.00 0.00 0.00 93 1013.8
20260507034414 5 45 0.0 3.2 0.00 0.00 0.00 93 1013.7
20260507032413 5 0 0.0 0.0 0.00 0.00 0.00 92 1013.7
20260507031413 5 0 0.0 0.0 0.00 0.00 0.00 92 1013.6
20260507030413 5 0 0.0 0.0 0.00 0.00 0.00 91 1013.6
20260507025413 6 0 0.0 0.0 0.00 0.00 0.00 91 1013.4
20260507024412 6 0 0.0 0.0 0.00 0.00 0.00 90 1013.3
20260507023412 6 0 0.0 0.0 0.00 0.00 0.00 88 1013.3
20260507022411 7 45 0.0 6.4 0.00 0.00 0.00 87 1013.2
20260507020411 7 67 1.6 9.7 0.00 0.00 0.00 87 1013.2
20260507015412 7 67 0.0 3.2 0.00 0.00 0.00 87 1013.0
20260507014415 7 67 0.0 3.2 0.00 0.00 0.00 87 1012.8
20260507013415 7 67 1.6 6.4 0.00 0.00 0.00 85 1012.8
20260507011417 7 90 3.2 12.9 0.00 0.00 0.00 84 1012.7
20260507004413 7 67 1.6 9.7 0.00 0.00 0.00 84 1012.7
20260507003413 7 90 1.6 6.4 0.00 0.00 0.00 84 1012.7
20260507002412 8 67 1.6 9.7 0.00 0.00 0.00 83 1012.6
20260507001412 8 90 6.4 16.1 0.00 0.00 0.00 84 1012.7
20260507000412 8 67 1.6 11.3 0.00 0.00 0.00 84 1012.7
20260506235411 8 67 3.2 11.3 0.00 0.00 0.00 84 1012.6
20260506234411 8 67 1.6 12.9 0.00 0.00 0.00 84 1012.5
20260506233411 8 90 6.4 11.3 0.00 0.00 0.00 84 1012.5
20260506232410 8 67 4.8 9.7 0.00 0.00 0.00 85 1012.4
20260506231410 8 90 1.6 6.4 0.00 0.00 0.00 85 1012.2
20260506225414 8 0 0.0 0.0 0.00 0.00 0.00 85 1012.2
20260506224414 8 112 0.0 9.7 0.00 0.00 0.00 84 1012.2
20260506223414 8 90 1.6 9.7 0.00 0.00 0.00 84 1012.2
20260506222413 8 67 4.8 6.4 0.00 0.00 0.00 84 1012.2
20260506221413 8 67 3.2 9.7 0.00 0.00 0.00 84 1012.2
20260506220413 8 67 3.2 11.3 0.00 0.00 0.00 86 1012.2
20260506215415 8 45 0.0 9.7 0.00 0.00 0.00 85 1011.9
20260506214412 8 135 1.6 9.7 0.00 0.00 0.00 84 1011.8
20260506213411 9 67 1.6 6.4 0.00 0.00 0.00 83 1011.8
20260506212411 9 90 4.8 11.3 0.00 0.00 0.00 82 1011.8
20260506211414 9 45 6.4 12.9 0.00 0.00 0.00 83 1011.8
20260506205410 9 90 1.6 14.5 0.00 0.00 0.00 82 1011.7
20260506204410 9 45 1.6 11.3 0.00 0.00 0.00 82 1011.6
20260506202414 9 45 1.6 12.9 0.00 0.00 0.00 83 1011.4
20260506201414 9 22 3.2 11.3 0.00 0.00 0.00 82 1011.3
20260506200414 9 45 4.8 11.3 0.00 0.00 0.00 81 1011.3
20260506194413 9 67 3.2 6.4 0.00 0.00 0.00 79 1011.1
20260506193413 10 90 3.2 11.3 0.00 0.00 0.00 78 1011.1
20260506192413 10 67 3.2 12.9 0.00 0.00 0.00 77 1011.1
20260506191412 10 45 3.2 11.3 0.00 0.00 0.00 75 1010.7
20260506190412 10 67 9.7 12.9 0.00 0.00 0.00 73 1010.7
20260506185411 10 45 1.6 11.3 0.00 0.00 0.00 72 1010.6
20260506184411 10 45 1.6 4.8 0.00 0.00 0.00 73 1010.6
20260506182410 11 67 3.2 17.7 0.00 0.00 0.00 70 1010.4
20260506181410 11 337 1.6 12.9 0.00 0.00 0.00 68 1010.2
20260506180415 11 67 4.8 12.9 0.00 0.00 0.00 65 1010.2
20260506175414 11 22 0.0 14.5 0.00 0.00 0.00 63 1010.1
20260506174414 11 67 1.6 14.5 0.00 0.00 0.00 66 1010.0
20260506172413 11 67 4.8 14.5 0.00 0.00 0.00 65 1009.7
20260506171416 12 360 1.6 14.5 0.00 0.00 0.00 64 1009.6
20260506170413 12 67 4.8 14.5 0.00 0.00 0.00 63 1009.6
20260506165412 12 67 4.8 12.9 0.00 0.00 0.00 64 1009.6
20260506164412 12 67 4.8 14.5 0.00 0.00 0.00 64 1009.6
20260506163412 12 45 4.8 17.7 0.00 0.00 0.00 63 1009.6
20260506162411 12 90 4.8 14.5 0.00 0.00 0.00 62 1009.6
20260506161411 12 22 3.2 16.1 0.00 0.00 0.00 61 1009.6
20260506160410 13 90 6.4 14.5 0.00 0.00 0.00 62 1009.6
20260506155410 13 67 4.8 14.5 0.00 0.00 0.00 60 1009.7
20260506154415 13 67 4.8 17.7 0.00 0.00 0.00 62 1009.7
20260506152414 13 45 4.8 14.5 0.00 0.00 0.00 63 1009.6
20260506151414 13 67 1.6 17.7 0.00 0.00 0.00 61 1009.6
20260506150413 13 67 4.8 12.9 0.00 0.00 0.00 61 1009.6
20260506145416 13 67 4.8 14.5 0.00 0.00 0.00 60 1009.6
20260506144413 13 67 6.4 11.3 0.00 0.00 0.00 59 1009.6
20260506142412 13 45 6.4 17.7 0.00 0.00 0.00 55 1009.7
20260506140411 14 67 6.4 12.9 0.00 0.00 0.00 53 1009.6
20260506135411 13 67 4.8 16.1 0.00 0.00 0.00 53 1009.6
20260506134411 14 67 4.8 19.3 0.00 0.00 0.00 52 1009.6
20260506133410 14 45 6.4 16.1 0.00 0.00 0.00 51 1009.6
20260506132410 14 315 1.6 20.9 0.00 0.00 0.00 47 1009.6
20260506131415 14 45 9.7 25.7 0.00 0.00 0.00 46 1009.6
20260506125414 14 67 9.7 27.4 0.00 0.00 0.00 44 1009.3
20260506124414 15 45 11.3 25.7 0.00 0.00 0.00 43 1009.2
20260506123413 15 67 9.7 16.1 0.00 0.00 0.00 45 1009.2
20260506121413 14 67 11.3 17.7 0.00 0.00 0.00 45 1009.1
20260506120412 14 67 1.6 9.7 0.00 0.00 0.00 46 1009.1
20260506115412 14 360 4.8 25.7 0.00 0.00 0.00 44 1009.1
20260506114412 14 22 4.8 20.9 0.00 0.00 0.00 45 1009.1
20260506113411 14 315 4.8 19.3 0.00 0.00 0.00 44 1009.1
20260506112411 14 67 9.7 20.9 0.00 0.00 0.00 46 1009.1
20260506111411 14 45 1.6 14.5 0.00 0.00 0.00 46 1009.0
20260506110410 13 337 11.3 20.9 0.00 0.00 0.00 47 1009.0
20260506105413 13 45 0.0 27.4 0.00 0.00 0.00 51 1009.1
20260506104415 13 337 6.4 17.7 0.00 0.00 0.00 48 1009.1
20260506103414 13 45 6.4 14.5 0.00 0.00 0.00 49 1009.1
20260506101417 13 337 3.2 20.9 0.00 0.00 0.00 49 1009.1
20260506100413 13 360 1.6 17.7 0.00 0.00 0.00 50 1009.1
20260506095413 13 45 3.2 20.9 0.00 0.00 0.00 49 1009.2
20260506094413 13 67 9.7 20.9 0.00 0.00 0.00 50 1009.2